DELTA 1 DEB, 14509

Orbit data source: Space-Track

DELTA 1 DEB, 14509 is space debris in SSO originally from a launch on Thu, 29 Jul 1976 UTC launched from the Air Force Western Test Range (AFWTR). Debris objects in space refer to the collection of defunct objects orbiting the Earth. Examples of debris include non-operational satellites, rocket bodies, and fragments generated from explosions, collisions, or faulty payload assembly.

Loading next visibility...
Identifier
14509, 1976-077EQ
Orbit
SSO
Country
Flag of USUS
Related business
Manufacturer
Unknown
Mission
Spacecraft
Bus & Motor
Unknown
Mass
Unknown
Launch date (UTC)
1976-07-29 (50 years ago)
Launch vehicle
Unknown
Launch site
Air Force Western Test Range (AFWTR)
Object type
Payload
Rocket body
Debris
Shape & HBR
Unknown shape, 0.1 m
Radar Cross Section
Medium (>0.1 m² and <1 m²)

Expand to show TLE details & history
Last TLE update: 10 hours ago

TLE from 10 hours ago
0 DELTA 1 DEB
1 14509U 76077EQ  26171.39886796  .00000019  00000-0  64257-3 0  9996
2 14509 102.3675 136.3748 0156375 241.9160 272.4929 12.12361556933032
Epoch: 2026-06-20T09:34Z
TLE epoch observation values (Epoch: 2026-06-20T09:34:22.191Z)
Latitude
26.73162°
Longitude
-89.52215°
Altitude
1,625.394 km
Speed
7.062 km/s
True Right ascension
21h 30m 44s
True Declination
26° 36' 31"
Sunlit
Object was in daylight at epoch
Visualization orbit readout
Latitude
Unknown
Longitude
Unknown
Altitude
Unknown
Speed
Unknown
Apparent Right ascension
Unknown
Apparent Declination
Unknown
Sunlit
N/A
Visualization observer readout
Local Sidereal Time
06:12:45
Azimuth
Unknown
Elevation
Unknown
Doppler factor
Unknown
Orbital elements
Apogee altitude
1,748.745 km
Perigee altitude
1,498.49 km
Semi-major axis
8,001.755 km
Eccentricity
0.01564
Inclination
102.3675°
RAAN
136.3748°
Arg. of periapsis
241.916°
True anomaly
270.70144°
Mean anomaly
272.4929°
Eccentric anomaly
271.59729°
Mean motion
3.03225 °/min
Orbital period
118.72 mins
BSTAR
0.00064257
Loading maneuver chart data...
Computing Atmospheric mass density...
Loading historical data...
Loading historical data...
Loading historical data...
Loading historical data...
Loading historical data...
Loading historical data...
Loading historical data...

Documentation

Showing up to 5 results
|